Naples, FL

11:07 AM EDT on May 25, 2017 (GMT -0400)
Naples Municipal

Weather History for KAPF - August, 2013

Change the Weather History Date:

Saturday, August 31, 2013

  Actual Average Record
Temperature  
Mean Temperature 82 °F 83 °F  
Max Temperature 89 °F 91 °F 96 °F (1975)
Min Temperature 75 °F 76 °F 70 °F (1956)
Degree Days  
Heating Degree Days 0 0  
Month to date heating degree days 0 0  
Since 1 June heating degree days 0 0  
Since 1 July heating degree days 0 0  
Cooling Degree Days 17 18  
Month to date cooling degree days 565 563  
Year to date cooling degree days 2695 2657  
Since 1 June cooling degree days 1591 1629  
Growing Degree Days 32 (Base 50)    
Moisture  
Dew Point 74 °F    
Average Humidity 82    
Maximum Humidity 100    
Minimum Humidity 63    
Precipitation  
Precipitation 0.00 in 0.28 in 2.89 in (1979)
Month to date precipitation 7.85 8.58  
Year to date precipitation 36.01 36.52  
Snow  
Snow 0.00 in - - ()
Month to date snowfall 0.0  
Since 1 June snowfall 0.0  
Since 1 July snowfall 0.0  
Snow Depth 0.00 in    
Sea Level Pressure  
Sea Level Pressure 29.95 in    
Wind  
Wind Speed 6 mph (SSE)    
Max Wind Speed 13 mph    
Max Gust Speed 16 mph    
Visibility 10 miles    
Events Thunderstorm    
T = Trace of Precipitation, MM = Missing Value Source: NWS Daily Summary

Daily Weather History Graph

Daily Weather History Graph

Search for Another Location

Airport or City:

Trip Planner

Search our weather history database for the weather conditions in past years. The results will help you decide how hot, cold, wet, or windy it might be!

Date:

Astronomy

Aug. 31, 2013 Rise Set
Actual Time 7:06 AM EDT 7:47 PM EDT
Civil Twilight 6:43 AM EDT 8:10 PM EDT
Nautical Twilight 6:15 AM EDT 8:38 PM EDT
Astronomical Twilight 5:47 AM EDT 9:06 PM EDT
Moon 2:50 AM EDT (8/31) 4:30 PM EDT (8/31)
Length of Visible Light 13h 27m
Length of Day
12h 40m
Waning Crescent, 21% of the Moon is Illuminated
Aug 31
Waning Crescent
Sep 5
New
Sep 12
First Quarter
Sep 19
Full
Sep 26
Last Quarter

Hourly Weather History & Observations

Time (EDT) Temp. Heat Index Dew Point Humidity Pressure Visibility Wind Dir Wind Speed Gust Speed Precip Events Conditions
12:53 AM 78.1 °F - 75.0 °F 90% 29.95 in 10.0 mi ENE 3.5 mph - N/A   Clear
1:20 AM 78.8 °F - 73.4 °F 83% 29.95 in 10.0 mi Calm Calm - N/A Thunderstorm Partly Cloudy
1:53 AM 78.1 °F - 73.9 °F 87% 29.95 in 10.0 mi Calm Calm - N/A Thunderstorm Partly Cloudy
2:46 AM 78.8 °F - 73.4 °F 83% 29.94 in 10.0 mi Calm Calm - N/A   Clear
2:53 AM 78.1 °F - 73.9 °F 87% 29.93 in 10.0 mi ESE 3.5 mph - N/A   Clear
3:53 AM 77.0 °F - 73.9 °F 90% 29.92 in 10.0 mi East 3.5 mph - N/A   Clear
4:53 AM 75.9 °F - 73.9 °F 94% 29.92 in 10.0 mi NE 3.5 mph - N/A   Clear
5:53 AM 75.9 °F - 73.9 °F 94% 29.92 in 10.0 mi Calm Calm - N/A   Clear
6:53 AM 75.9 °F - 75.0 °F 97% 29.93 in 10.0 mi ESE 3.5 mph - N/A   Partly Cloudy
7:53 AM 77.0 °F - 75.9 °F 96% 29.94 in 10.0 mi ESE 3.5 mph - N/A   Partly Cloudy
8:53 AM 82.0 °F 89.4 °F 75.9 °F 82% 29.96 in 9.0 mi South 3.5 mph - N/A   Partly Cloudy
9:53 AM 84.9 °F 93.3 °F 75.0 °F 72% 29.97 in 10.0 mi SSW 4.6 mph - N/A   Scattered Clouds
10:53 AM 87.1 °F 96.3 °F 75.0 °F 67% 29.99 in 10.0 mi SW 11.5 mph - N/A   Scattered Clouds
11:53 AM 86.0 °F 95.1 °F 75.0 °F 70% 29.99 in 10.0 mi SW 9.2 mph - N/A   Clear
12:53 PM 87.1 °F 96.3 °F 75.0 °F 67% 29.97 in 10.0 mi West 9.2 mph - N/A   Scattered Clouds
1:53 PM 87.1 °F 96.3 °F 75.0 °F 67% 29.97 in 10.0 mi West 8.1 mph - N/A   Partly Cloudy
2:53 PM 88.0 °F 96.5 °F 73.9 °F 63% 29.95 in 10.0 mi WSW 10.4 mph - N/A   Partly Cloudy
3:53 PM 88.0 °F 96.5 °F 73.9 °F 63% 29.93 in 10.0 mi West 9.2 mph - N/A   Clear
4:53 PM 88.0 °F 96.5 °F 73.9 °F 63% 29.92 in 10.0 mi West 10.4 mph - N/A   Partly Cloudy
5:53 PM 86.0 °F 93.0 °F 73.0 °F 65% 29.93 in 10.0 mi WSW 5.8 mph - N/A   Clear
6:53 PM 81.0 °F 85.2 °F 72.0 °F 74% 29.94 in 10.0 mi East 5.8 mph - N/A   Overcast
7:53 PM 81.0 °F 85.2 °F 72.0 °F 74% 29.95 in 10.0 mi SSE 4.6 mph - N/A   Clear
8:53 PM 80.1 °F 84.2 °F 73.0 °F 79% 29.95 in 10.0 mi ESE 6.9 mph - N/A   Partly Cloudy
9:53 PM 79.0 °F - 73.0 °F 82% 29.97 in 10.0 mi ESE 5.8 mph - N/A   Clear
10:53 PM 78.1 °F - 73.0 °F 84% 29.98 in 10.0 mi ESE 4.6 mph - N/A   Clear
11:53 PM 77.0 °F - 73.9 °F 90% 29.97 in 10.0 mi Variable 3.5 mph - N/A   Clear